[[{"header":{"parameterUnit":"m.s-1","parameterCategory":1,"la1":30.2991,"la2":30.254,"lo1":-89.0895,"lo2":-89.0444,"dy":0.0017,"dx":0.0017,"nx":28,"ny":28,"refTime":"2026-02-01T09:00:00:Z","depth":0,"parameterNumber":2,"parameterNumberName":"U-component_of_WINDS"},"data":[0,0,0,0,0,0,0,0,0,0,0,0,0,0,0,0,0,0,0,0,0,0,0,0,0,0,0,0,0,0,0,0,0,0,0,0,0,0,0,0,0,0,0,0,0,0,0,0,0,0,0,0,0,0,0,0,0,0,2.3489,2.349,0,2.3521,2.3522,2.3522,2.3511,2.351,2.351,2.3509,2.354,2.3542,2.3543,0,0,0,0,0,0,0,0,0,0,0,0,0,2.3418,2.342,2.3489,2.349,2.349,2.3521,2.3522,2.3522,2.3511,2.351,2.3509,2.3509,2.354,2.3542,2.3543,0,0,0,0,0,0,0,0,0,0,0,0,0,2.345,2.342,2.3489,2.3488,2.3489,2.3521,2.3522,2.3522,2.3511,2.351,2.3509,2.3508,2.3539,2.3541,2.3544,2.3578,0,0,2.355,2.3551,0,0,0,0,0,0,0,0,2.3448,2.3452,2.3488,2.3489,2.3489,2.3511,2.3508,2.3541,2.3512,2.3503,2.3509,2.3508,2.3531,2.3534,2.3542,2.358,2.3581,2.3551,2.3552,2.3553,2.3554,0,0,0,0,0,0,0,2.3446,2.3451,2.3502,2.3489,2.3489,2.3486,2.349,2.3514,2.3522,2.3503,2.3503,2.3507,2.3531,2.354,2.3543,2.3582,2.3551,2.3553,2.3554,2.3555,2.365,2.3651,0,0,0,0,0,0,2.3443,2.3449,2.3501,2.3503,2.3465,2.3488,2.3492,2.3505,2.3522,2.3524,2.3508,2.3506,2.3537,2.354,2.3544,2.3586,2.3553,2.3555,2.3556,2.3649,2.3651,2.3652,0,0,0,0,0,0,2.3442,2.3448,2.35,2.3476,2.3482,2.3491,2.3505,2.3506,2.3515,2.3525,2.3527,2.3515,2.3536,2.3541,2.357,2.3587,2.3556,2.3558,2.3648,2.365,2.3651,2.3671,0,0,0,0,0,0,2.344,2.3448,2.3461,2.3476,2.3484,2.3525,2.3506,2.3508,2.3519,2.3518,2.3533,2.3534,2.3536,2.3567,2.3573,2.359,2.356,2.3646,2.3649,2.3651,2.3668,2.3673,2.3677,0,0,0,0,0,2.3437,2.3465,2.3462,2.3468,2.35,2.3526,2.353,2.3532,2.3521,2.3534,2.3541,2.3534,2.3585,2.357,2.3576,2.3594,2.3645,2.3648,2.365,2.3667,2.3672,2.3676,0,0,0,0,0,0,2.345,2.3467,2.3463,2.3496,2.351,2.3524,2.3541,2.3537,2.3554,2.3552,2.3553,2.3556,2.3586,2.3593,2.3577,2.3629,2.3613,2.3617,2.3623,2.3629,2.3633,2.363,2.3562,0,0,0,0,0,2.3457,2.3477,2.349,2.3518,2.3525,2.3532,2.3544,2.3544,2.3558,2.3563,2.3572,2.3586,2.3605,2.3617,2.3635,2.367,2.3673,2.3686,2.369,2.3693,2.3696,2.3715,2.3721,2.3661,2.3661,2.3661,0,0,2.3471,2.3483,2.3495,2.3521,2.3532,2.3552,2.3537,2.3559,2.3575,2.3567,2.3595,2.3602,2.3617,2.365,2.3664,2.3656,2.3714,2.3696,2.3699,2.37,2.3719,2.3724,2.3729,2.3663,2.3662,2.3662,0,0,2.3507,2.3518,2.3542,2.3554,2.357,2.3575,2.3581,2.3596,2.3601,2.363,2.3624,2.3643,2.3675,2.3687,2.3697,2.3739,2.3733,2.3745,2.3765,2.3784,2.3789,2.3793,2.3808,2.3813,2.3748,2.3748,2.3748,0,2.3522,2.3553,2.3555,2.3578,2.359,2.3585,2.361,2.3621,2.3642,2.3651,2.3642,2.3684,2.3694,2.3729,2.3739,2.3747,2.3754,2.3742,2.3788,2.3792,2.3796,2.381,2.3816,2.375,2.3749,2.3749,2.3749,0,2.357,2.3592,2.361,2.3632,2.3646,2.367,2.3676,2.369,2.3689,2.3695,2.3724,2.3737,2.3757,2.3766,2.3765,2.3801,2.3796,2.3788,2.3771,2.3803,2.3816,2.3822,2.3751,2.3751,2.3751,2.375,0,0,2.3613,2.3637,2.3644,2.3654,2.3673,2.369,2.3714,2.3735,2.3747,2.3762,2.3782,2.3811,2.3804,2.3816,2.3816,2.3833,2.3866,2.3823,2.3823,2.383,2.3906,2.3911,2.3917,2.3863,2.3864,2.3865,2.3904,0,2.365,2.3692,2.3696,2.3734,2.3754,2.3751,2.3772,2.3786,2.3792,2.381,2.3817,2.3838,2.3827,2.3834,2.3851,2.3858,2.3881,2.3856,2.3881,2.3882,2.3876,2.3924,2.393,2.3966,2.391,2.3911,2.3911,0,2.3698,2.3716,2.3756,2.3773,2.3782,2.3801,2.3821,2.3838,2.3854,2.3858,2.3872,2.3871,2.3896,2.388,2.3914,2.3897,2.3908,2.3913,2.3915,2.3916,2.3897,2.3926,2.3978,2.3983,2.3919,2.3919,2.3918,0,2.3725,2.3759,2.3788,2.3796,2.3817,2.3831,2.384,2.3855,2.3868,2.3885,2.3894,2.3914,2.3925,2.3941,2.3945,2.3933,2.3979,2.3964,2.3983,2.3983,2.3991,2.399,2.4045,2.4,2.4,2.4,2.4,0,2.3765,2.3789,2.38,2.3817,2.3845,2.385,2.3877,2.3885,2.3899,2.3918,2.3917,2.3935,2.394,2.3959,2.3963,2.3991,2.3996,2.4,2.4,2.3999,2.3999,2.4005,2.4002,2.4001,2.4001,2.4001,2.4001,0,2.3798,2.3806,2.3837,2.3855,2.386,2.388,2.3895,2.3912,2.3919,2.3943,2.3949,2.396,2.3982,2.3989,2.4016,2.4019,2.4051,2.405,2.4046,2.4045,2.4064,2.4062,2.4124,2.4132,2.4082,2.4083,2.4083,0,2.3823,2.3842,2.3862,2.3875,2.3885,2.3906,2.3919,2.3925,2.3939,2.396,2.3974,2.3997,2.4015,2.4051,2.4061,2.4081,2.408,2.4101,2.4083,2.4082,2.408,2.4078,2.408,2.4103,2.4104,2.4104,2.4105,0,2.3865,2.3869,2.3888,2.3909,2.3926,2.3943,2.3959,2.397,2.3978,2.3994,2.4017,2.4031,2.4059,2.4081,2.4103,2.4112,2.411,2.411,2.4116,2.4114,2.4111,2.4112,2.4054,2.4108,2.4108,2.4108,2.4108,2.4107,2.3894,2.3911,2.3928,2.395,2.3964,2.3979,2.3996,2.4006,2.4026,2.4049,2.4052,2.4077,2.4094,2.4122,2.4133,2.4153,2.4147,2.4155,2.4156,2.4158,2.4159,2.4109,2.4157,2.4157,2.4157,2.4157,2.4156,0,2.3936,2.3947,2.3968,2.3991,2.4009,2.4006,2.4024,2.4039,2.4061,2.4077,2.4096,2.4123,2.4145,2.4158,2.418,2.4193,2.4192,2.4198,2.4197,2.4199,2.4164,2.4156,2.4199,2.4199,2.4199,2.4199,2.4199,2.4199,2.396,2.3988,2.3994,2.4029,2.4041,2.4066,2.4076,2.4091,2.4104,2.4134,2.4153,2.4161,2.4176,2.42,2.422,2.4223,2.4231,2.4237,2.424,2.4206,2.4202,2.4197,2.4191,2.4239,2.4239,2.4273,2.4274,2.4274]},{"header":{"parameterUnit":"m.s-1","parameterCategory":1,"la1":30.2991,"la2":30.254,"lo1":-89.0895,"lo2":-89.0444,"dy":0.0017,"dx":0.0017,"nx":28,"ny":28,"refTime":"2026-02-01T09:00:00:Z","depth":0,"parameterNumber":3,"parameterNumberName":"V-component_of_WINDS"},"data":[0,0,0,0,0,0,0,0,0,0,0,0,0,0,0,0,0,0,0,0,0,0,0,0,0,0,0,0,0,0,0,0,0,0,0,0,0,0,0,0,0,0,0,0,0,0,0,0,0,0,0,0,0,0,0,0,0,0,-5.8,-5.8002,0,-5.8163,-5.8165,-5.8167,-5.816,-5.8157,-5.8155,-5.8153,-5.8317,-5.8324,-5.833,0,0,0,0,0,0,0,0,0,0,0,0,0,-5.7679,-5.7685,-5.8,-5.8002,-5.8004,-5.8163,-5.8165,-5.8168,-5.816,-5.8157,-5.8155,-5.8152,-5.8315,-5.8323,-5.8331,0,0,0,0,0,0,0,0,0,0,0,0,0,-5.7828,-5.7687,-5.7999,-5.8019,-5.8023,-5.8163,-5.8165,-5.8168,-5.8161,-5.8157,-5.8154,-5.8151,-5.8313,-5.8322,-5.8332,-5.8461,0,0,-5.8362,-5.8366,0,0,0,0,0,0,0,0,-5.782,-5.784,-5.8014,-5.8018,-5.8022,-5.8138,-5.8113,-5.8266,-5.8162,-5.8108,-5.8153,-5.8149,-5.826,-5.8274,-5.8312,-5.8469,-5.8476,-5.8363,-5.8369,-5.8373,-5.8376,0,0,0,0,0,0,0,-5.7809,-5.7833,-5.8064,-5.8017,-5.8022,-5.802,-5.8037,-5.8142,-5.8202,-5.8113,-5.8113,-5.8132,-5.8262,-5.8303,-5.8316,-5.8479,-5.8362,-5.8371,-5.8377,-5.8381,-5.8752,-5.8756,0,0,0,0,0,0,-5.7795,-5.7824,-5.8059,-5.8069,-5.7911,-5.8028,-5.8048,-5.8104,-5.82,-5.8212,-5.8135,-5.8131,-5.8288,-5.8305,-5.8322,-5.8482,-5.8373,-5.8382,-5.8388,-5.8748,-5.8753,-5.8757,0,0,0,0,0,0,-5.7788,-5.7816,-5.8052,-5.7947,-5.7977,-5.8038,-5.8101,-5.8109,-5.815,-5.8217,-5.8228,-5.8166,-5.8286,-5.8308,-5.8428,-5.8487,-5.8386,-5.8395,-5.8744,-5.875,-5.8755,-5.8801,0,0,0,0,0,0,-5.7779,-5.7814,-5.7864,-5.7948,-5.7982,-5.8156,-5.8105,-5.8115,-5.8168,-5.8164,-5.8249,-5.826,-5.8285,-5.8413,-5.8437,-5.8499,-5.8403,-5.8738,-5.8746,-5.8753,-5.8795,-5.8808,-5.8819,0,0,0,0,0,-5.7768,-5.7869,-5.7866,-5.7895,-5.8047,-5.816,-5.8179,-5.8206,-5.8172,-5.8223,-5.8267,-5.8257,-5.8477,-5.8425,-5.8453,-5.8518,-5.8735,-5.8744,-5.8753,-5.8789,-5.8805,-5.8819,0,0,0,0,0,0,-5.7788,-5.788,-5.7878,-5.801,-5.8077,-5.8158,-5.8223,-5.8222,-5.83,-5.8293,-5.8323,-5.8342,-5.8462,-5.8502,-5.8443,-5.8649,-5.8601,-5.8616,-5.8619,-5.8635,-5.8648,-5.8636,-5.8411,0,0,0,0,0,-5.7809,-5.7894,-5.7969,-5.8078,-5.8112,-5.8162,-5.8212,-5.8227,-5.8298,-5.8326,-5.8377,-5.8445,-5.853,-5.8585,-5.8666,-5.88,-5.8819,-5.8858,-5.8871,-5.8881,-5.8893,-5.8969,-5.8988,-5.8787,-5.8787,-5.8787,0,0,-5.7851,-5.7911,-5.7963,-5.8084,-5.8137,-5.8225,-5.8186,-5.8279,-5.8344,-5.8339,-5.8456,-5.8497,-5.8574,-5.8703,-5.8761,-5.8739,-5.8953,-5.8892,-5.8899,-5.8907,-5.898,-5.8999,-5.9016,-5.8793,-5.8792,-5.8791,0,0,-5.7972,-5.8026,-5.8124,-5.8179,-5.8262,-5.8295,-5.8319,-5.84,-5.8428,-5.8546,-5.8545,-5.8622,-5.8766,-5.8823,-5.887,-5.9015,-5.901,-5.904,-5.9105,-5.9179,-5.9195,-5.9209,-5.9262,-5.9281,-5.9053,-5.9053,-5.9053,0,-5.8014,-5.8146,-5.8174,-5.8269,-5.8323,-5.8324,-5.8424,-5.8476,-5.858,-5.8617,-5.8591,-5.8774,-5.8826,-5.8968,-5.9004,-5.9041,-5.907,-5.9031,-5.919,-5.9205,-5.9219,-5.927,-5.929,-5.9056,-5.9056,-5.9055,-5.9055,0,-5.8194,-5.8285,-5.8354,-5.8458,-5.8519,-5.8615,-5.8658,-5.8716,-5.8727,-5.8763,-5.8883,-5.8946,-5.9041,-5.9076,-5.9086,-5.9221,-5.9204,-5.9184,-5.9136,-5.9241,-5.9289,-5.9309,-5.9061,-5.906,-5.9059,-5.9058,0,0,-5.8332,-5.8451,-5.8476,-5.8524,-5.8616,-5.8688,-5.8784,-5.8879,-5.8929,-5.9001,-5.9084,-5.9207,-5.9189,-5.9243,-5.926,-5.9324,-5.9437,-5.9296,-5.9299,-5.9322,-5.9591,-5.9607,-5.9629,-5.9434,-5.9438,-5.9441,-5.9585,0,-5.8465,-5.8638,-5.8667,-5.8819,-5.8905,-5.8909,-5.8993,-5.9059,-5.9095,-5.9173,-5.9212,-5.93,-5.9269,-5.9302,-5.9366,-5.941,-5.9492,-5.94,-5.9512,-5.9515,-5.9494,-5.9654,-5.9671,-5.9803,-5.9604,-5.9607,-5.961,0,-5.8642,-5.8721,-5.8882,-5.8965,-5.9002,-5.9078,-5.9168,-5.9242,-5.9317,-5.9338,-5.94,-5.941,-5.951,-5.9458,-5.9598,-5.9535,-5.9582,-5.9611,-5.9617,-5.9629,-5.9569,-5.9672,-5.9846,-5.9867,-5.9639,-5.9637,-5.9635,0,-5.8729,-5.8876,-5.8992,-5.9032,-5.9131,-5.9184,-5.9228,-5.9299,-5.9355,-5.9433,-5.947,-5.9558,-5.9606,-5.9675,-5.9708,-5.9666,-5.9846,-5.9796,-5.9868,-5.9867,-5.9906,-5.9903,-6.0092,-5.9935,-5.9934,-5.9934,-5.9933,0,-5.8875,-5.8973,-5.9033,-5.9104,-5.9215,-5.9247,-5.9356,-5.9398,-5.9462,-5.9542,-5.9549,-5.9624,-5.9663,-5.9743,-5.9769,-5.9882,-5.9904,-5.9924,-5.9931,-5.9925,-5.9922,-5.9957,-5.9949,-5.9939,-5.9938,-5.9937,-5.9936,0,-5.8991,-5.9034,-5.9161,-5.9245,-5.9269,-5.9347,-5.9419,-5.9488,-5.9525,-5.9625,-5.9651,-5.9708,-5.9803,-5.9843,-5.9959,-5.9977,-6.0107,-6.0105,-6.0082,-6.0084,-6.0154,-6.0148,-6.0372,-6.0404,-6.0225,-6.0226,-6.0228,0,-5.9081,-5.9158,-5.9251,-5.9305,-5.9351,-5.9439,-5.9496,-5.9531,-5.959,-5.9683,-5.9741,-5.9837,-5.9915,-6.0067,-6.0118,-6.0207,-6.0209,-6.0282,-6.0222,-6.0215,-6.0212,-6.0208,-6.0216,-6.0293,-6.0294,-6.0296,-6.0297,0,-5.9238,-5.9256,-5.9339,-5.9431,-5.95,-5.9573,-5.9644,-5.9688,-5.9734,-5.9801,-5.9899,-5.996,-6.008,-6.0175,-6.0268,-6.0312,-6.0313,-6.0315,-6.0337,-6.0332,-6.0317,-6.0328,-6.0113,-6.031,-6.0309,-6.0308,-6.0307,-6.0307,-5.9345,-5.9414,-5.9491,-5.9584,-5.9642,-5.9709,-5.9779,-5.9825,-5.9908,-6.001,-6.0025,-6.013,-6.0205,-6.033,-6.0378,-6.046,-6.0442,-6.0473,-6.0481,-6.0488,-6.0494,-6.0303,-6.0477,-6.0477,-6.0476,-6.0476,-6.0476,0,-5.9504,-5.9554,-5.9639,-5.974,-5.9813,-5.9809,-5.9888,-5.995,-6.0043,-6.0112,-6.019,-6.0304,-6.0397,-6.0456,-6.055,-6.0605,-6.0608,-6.0628,-6.0625,-6.0636,-6.0504,-6.0477,-6.0624,-6.0624,-6.0624,-6.0624,-6.0624,-6.0624,-5.9595,-5.9712,-5.974,-5.9886,-5.9935,-6.004,-6.0086,-6.0148,-6.0204,-6.0332,-6.0409,-6.0448,-6.0514,-6.0613,-6.0698,-6.0713,-6.0747,-6.077,-6.0784,-6.066,-6.0645,-6.063,-6.0605,-6.0777,-6.0777,-6.0909,-6.091,-6.0911]}]]